TimePDT,TemperatureF,Dew PointF,Humidity,Sea Level PressureIn,VisibilityMPH,Wind Direction,Wind SpeedMPH,Gust SpeedMPH,PrecipitationIn,Events,Conditions,WindDirDegrees,DateUTC
12:15 AM,60.8,60.8,100,30.04,8.0,Calm,Calm,-,0.00,,Clear,0,2013-06-30 07:15:00
12:35 AM,60.8,60.8,100,30.04,10.0,Calm,Calm,-,0.00,,Clear,0,2013-06-30 07:35:00
12:55 AM,60.8,60.8,100,30.04,10.0,Calm,Calm,-,0.00,,Clear,0,2013-06-30 07:55:00
1:15 AM,60.8,60.8,100,30.04,10.0,Calm,Calm,-,0.00,,Clear,0,2013-06-30 08:15:00
1:35 AM,59.0,59.0,100,30.04,10.0,Calm,Calm,-,0.00,,Clear,0,2013-06-30 08:35:00
1:55 AM,59.0,59.0,100,30.03,10.0,Calm,Calm,-,0.00,,Clear,0,2013-06-30 08:55:00
2:15 AM,57.2,57.2,100,30.03,10.0,Calm,Calm,-,0.00,,Clear,0,2013-06-30 09:15:00
2:35 AM,57.2,57.2,100,30.03,10.0,Calm,Calm,-,0.00,,Clear,0,2013-06-30 09:35:00
2:55 AM,57.2,57.2,100,30.03,10.0,Calm,Calm,-,0.00,,Clear,0,2013-06-30 09:55:00
3:15 AM,57.2,57.2,100,30.03,10.0,Calm,Calm,-,0.00,,Clear,0,2013-06-30 10:15:00
3:35 AM,57.2,57.2,100,30.02,10.0,WSW,3.5,-,0.00,,Clear,240,2013-06-30 10:35:00
3:55 AM,57.2,57.2,100,30.02,10.0,Calm,Calm,-,0.00,,Clear,0,2013-06-30 10:55:00
4:15 AM,57.2,57.2,100,30.02,10.0,NNW,3.5,-,0.00,,Clear,330,2013-06-30 11:15:00
4:35 AM,57.2,57.2,100,30.02,10.0,Calm,Calm,-,0.00,,Clear,0,2013-06-30 11:35:00
4:55 AM,57.2,57.2,100,30.02,10.0,Calm,Calm,-,0.00,,Clear,0,2013-06-30 11:55:00
5:15 AM,57.2,57.2,100,30.02,10.0,Calm,Calm,-,0.00,,Clear,0,2013-06-30 12:15:00
5:35 AM,57.2,57.2,100,30.02,10.0,Calm,Calm,-,0.00,,Clear,0,2013-06-30 12:35:00
5:55 AM,57.2,57.2,100,30.02,10.0,Calm,Calm,-,0.00,,Clear,0,2013-06-30 12:55:00
6:15 AM,57.2,57.2,100,30.03,10.0,Calm,Calm,-,0.00,,Clear,0,2013-06-30 13:15:00
6:35 AM,59.0,59.0,100,30.02,10.0,Calm,Calm,-,0.00,,Clear,0,2013-06-30 13:35:00
6:55 AM,60.8,60.8,100,30.02,10.0,Calm,Calm,-,0.00,,Clear,0,2013-06-30 13:55:00
7:15 AM,64.4,60.8,88,30.02,10.0,Calm,Calm,-,0.00,,Clear,0,2013-06-30 14:15:00
7:35 AM,66.2,64.4,94,30.02,10.0,NE,3.5,-,0.00,,Clear,40,2013-06-30 14:35:00
7:55 AM,68.0,66.2,94,30.02,10.0,ENE,3.5,-,0.00,,Clear,60,2013-06-30 14:55:00
8:15 AM,69.8,68.0,94,30.01,10.0,NE,4.6,-,0.00,,Clear,50,2013-06-30 15:15:00
8:35 AM,69.8,68.0,94,30.01,10.0,ENE,5.8,-,0.00,,Clear,60,2013-06-30 15:35:00
8:55 AM,71.6,68.0,88,30.01,10.0,North,3.5,-,0.00,,Clear,10,2013-06-30 15:55:00
9:15 AM,71.6,68.0,88,30.01,10.0,Calm,Calm,-,0.00,,Clear,0,2013-06-30 16:15:00
9:35 AM,73.4,68.0,83,30.01,10.0,WNW,3.5,-,0.00,,Clear,300,2013-06-30 16:35:00
9:55 AM,75.2,69.8,83,30.00,10.0,WNW,4.6,-,0.00,,Clear,300,2013-06-30 16:55:00
10:15 AM,75.2,69.8,83,30.00,10.0,WNW,6.9,-,0.00,,Clear,300,2013-06-30 17:15:00
10:35 AM,75.2,69.8,83,29.99,10.0,WNW,8.1,-,0.00,,Clear,290,2013-06-30 17:35:00
10:55 AM,75.2,69.8,83,29.99,10.0,WNW,6.9,-,0.00,,Clear,300,2013-06-30 17:55:00
11:15 AM,75.2,68.0,78,29.99,10.0,NW,6.9,-,0.00,,Clear,310,2013-06-30 18:15:00
11:35 AM,77.0,69.8,78,29.98,10.0,West,6.9,-,0.00,,Clear,280,2013-06-30 18:35:00
11:55 AM,77.0,68.0,74,29.97,10.0,WNW,8.1,-,0.00,,Clear,300,2013-06-30 18:55:00
12:15 PM,78.8,69.8,74,29.97,10.0,WNW,6.9,-,0.00,,Clear,300,2013-06-30 19:15:00
12:35 PM,78.8,71.6,78,29.96,10.0,WNW,9.2,-,0.00,,Clear,290,2013-06-30 19:35:00
12:55 PM,78.8,71.6,78,29.96,10.0,NW,9.2,-,0.00,,Clear,320,2013-06-30 19:55:00
1:35 PM,78.8,71.6,78,29.95,10.0,NW,9.2,-,0.00,,Clear,320,2013-06-30 20:35:00
1:55 PM,78.8,71.6,78,29.94,10.0,NW,9.2,-,0.00,,Clear,310,2013-06-30 20:55:00
2:55 PM,78.8,71.6,78,29.94,10.0,WNW,8.1,-,0.00,,Clear,300,2013-06-30 21:55:00
3:15 PM,78.8,69.8,74,29.93,10.0,WNW,11.5,-,0.00,,Clear,300,2013-06-30 22:15:00
3:35 PM,80.6,69.8,70,29.92,10.0,WNW,11.5,-,0.00,,Clear,300,2013-06-30 22:35:00
3:55 PM,80.6,71.6,74,29.91,10.0,NNW,9.2,-,0.00,,Clear,330,2013-06-30 22:55:00
4:15 PM,80.6,69.8,70,29.91,10.0,NW,10.4,-,0.00,,Clear,310,2013-06-30 23:15:00
4:35 PM,82.4,71.6,70,29.90,10.0,WNW,8.1,-,0.00,,Clear,300,2013-06-30 23:35:00
4:55 PM,82.4,69.8,66,29.89,10.0,WNW,8.1,-,0.00,,Clear,300,2013-06-30 23:55:00
5:15 PM,80.6,68.0,65,29.89,10.0,WNW,11.5,-,0.00,,Clear,300,2013-07-01 00:15:00
5:35 PM,80.6,68.0,65,29.89,10.0,WNW,11.5,-,0.00,,Clear,300,2013-07-01 00:35:00
5:55 PM,80.6,68.0,65,29.89,10.0,WNW,6.9,-,0.00,,Clear,300,2013-07-01 00:55:00
6:15 PM,80.6,66.2,61,29.88,10.0,NW,6.9,-,0.00,,Clear,310,2013-07-01 01:15:00
6:35 PM,80.6,68.0,65,29.88,10.0,WNW,8.1,-,0.00,,Clear,300,2013-07-01 01:35:00
6:55 PM,80.6,69.8,70,29.88,10.0,WNW,3.5,-,0.00,,Clear,300,2013-07-01 01:55:00
7:15 PM,80.6,69.8,70,29.88,10.0,SW,4.6,-,0.00,,Clear,220,2013-07-01 02:15:00
7:35 PM,78.8,69.8,74,29.88,10.0,SSW,5.8,-,0.00,,Clear,210,2013-07-01 02:35:00
7:55 PM,77.0,68.0,74,29.88,10.0,SW,6.9,-,0.00,,Clear,220,2013-07-01 02:55:00
8:15 PM,73.4,66.2,78,29.88,10.0,SW,8.1,-,0.00,,Clear,220,2013-07-01 03:15:00
8:35 PM,71.6,64.4,78,29.89,10.0,SW,5.8,-,0.00,,Clear,220,2013-07-01 03:35:00
8:55 PM,71.6,64.4,78,29.89,10.0,SSW,5.8,-,0.00,,Clear,210,2013-07-01 03:55:00
9:15 PM,69.8,64.4,83,29.89,10.0,Calm,Calm,-,0.00,,Clear,0,2013-07-01 04:15:00
9:35 PM,68.0,64.4,88,29.90,10.0,South,3.5,-,0.00,,Clear,170,2013-07-01 04:35:00
9:55 PM,66.2,64.4,94,29.90,10.0,South,4.6,-,0.00,,Clear,190,2013-07-01 04:55:00
10:15 PM,66.2,64.4,94,29.91,10.0,South,3.5,-,0.00,,Clear,190,2013-07-01 05:15:00
10:35 PM,64.4,62.6,94,29.91,10.0,Calm,Calm,-,0.00,,Partly Cloudy,0,2013-07-01 05:35:00
10:55 PM,64.4,62.6,94,29.92,10.0,South,3.5,-,0.00,,Clear,170,2013-07-01 05:55:00
11:15 PM,64.4,62.6,94,29.92,10.0,Calm,Calm,-,0.00,,Clear,0,2013-07-01 06:15:00
11:35 PM,64.4,64.4,100,29.93,10.0,South,3.5,-,0.00,,Clear,170,2013-07-01 06:35:00
11:55 PM,62.6,62.6,100,29.93,10.0,South,4.6,-,0.00,,Clear,170,2013-07-01 06:55:00